Simultaneous Nadir Overpasses (SNOs) Predictions

Prediction of SNOs over PacNW region [( 10.00, 139.50) to ( 22.70, 165.60)] between AQUA and NPP Satellites:

Table of predicted SNOs over PacNW region for the next 30.0 days since TLE Epoch: 12/31/2012
Index Date (AQUA) Time (AQUA) AQUA Lat,Lon Date (NPP) Time (NPP) NPP Lat,Lon Distance(km) Time Diff (sec)
1 01/05/2013 15:12:05 17.03, 158.33 01/05/2013 15:10:31 17.49, 155.92 261.80 94
2 01/13/2013 16:00:52 20.38, 146.68 01/13/2013 16:00:14 20.87, 144.07 276.92 38
3 01/19/2013 03:10:49 10.07, 154.68 01/19/2013 03:14:18 7.21, 151.11 505.31 209
4 01/21/2013 15:13:18 14.61, 157.67 01/21/2013 15:11:04 15.05, 155.38 250.13 134
5 01/27/2013 02:23:23 16.40, 165.58 01/27/2013 02:25:07 13.07, 162.48 497.89 104
